STARLINK-1849 (47137 NORAD) Tracking and Keplerian Element Data

This shows tracking and keplerian element data for the satellite.

Feedback or suggestion? Click here.




ElementValue
Catalog47137
NameSTARLINK-1849
Epoch Orbit175
Epoch Day62.91667824
Epoch Year2021
RAAN234.7614
Inclination53.0526
Eccentricity0.0001937
Argument of Perigee81.3005
Mean Anonmoly71.6247
Mean Motion15.06381798
Decay Rate0.00046888
L11 47137U 20088R 21062.91667824 .00046888 00000-0 31473-2 0 9998
L22 47137 53.0526 234.7614 0001937 81.3005 71.6247 15.06381798 1757

Live tracking and technical data element details for STARLINK-1849 (NORAD 47137). STARLINK-1849 can be tracked NOW for your location showing map with azimuth and elevation plus other details from your city location.

Track the satellite on the map from your city or location and see movement details for azimuth, elevation, latitude, longitude, range, height, and movement on the map or in text.







IsCatalogInMostPopularTable: catalog: 47137, numindb: 34
Update: records affected: 1



GetName: 47137 STARLINK-1849

Hit Count: updated at: Fri, 05 Mar 2021 07:20:13 GMT